Weather History for KAAF - March, 2013

Change the Weather History Date:

Tuesday, March 19, 2013

  Actual Average Record
Temperature  
Mean Temperature 69 °F 61 °F  
Max Temperature 74 °F 71 °F 81 °F (2011)
Min Temperature 63 °F 51 °F 36 °F (1978)
Degree Days  
Heating Degree Days 0    
Month to date heating degree days 167  
Since 1 July heating degree days 1006  
Cooling Degree Days 4    
Month to date cooling degree days 9  
Year to date cooling degree days 64  
Growing Degree Days 18 (Base 50)    
Moisture  
Dew Point 60 °F    
Average Humidity 75    
Maximum Humidity 93    
Minimum Humidity 57    
Precipitation  
Precipitation 0.21 in 0.17 in 1.79 in (1964)
Month to date precipitation 3.31 3.27  
Year to date precipitation 13.84 11.82  
Sea Level Pressure  
Sea Level Pressure 29.96 in    
Wind  
Wind Speed 7 mph (East)    
Max Wind Speed 18 mph    
Max Gust Speed 23 mph    
Visibility 9 miles    
Events Rain , Thunderstorm    
T = Trace of Precipitation, MM = Missing Value Source: NWS Daily Summary

Daily Weather History Graph

Daily Weather History Graph

Search for Another Location

Airport or City:

Trip Planner

Search our weather history database for the weather conditions in past years. The results will help you decide how hot, cold, wet, or windy it might be!

Date:

Astronomy

Mar. 19, 2013 Rise Set
Actual Time 7:44 AM EDT 7:51 PM EDT
Civil Twilight 7:21 AM EDT 8:14 PM EDT
Nautical Twilight 6:53 AM EDT 8:42 PM EDT
Astronomical Twilight 6:25 AM EDT 9:10 PM EDT
Moon 12:58 PM EDT (3/19) 2:13 AM EDT (3/19)
Length of Visible Light 12h 53m
Length of Day
12h 06m
Waxing Crescent, 49% of the Moon is Illuminated
Mar 19
Waxing Crescent
Mar 19
First Quarter
Mar 27
Full
Apr 3
Last Quarter
Apr 10
New

Hourly Weather History & Observations

Time (EDT) Temp. Dew Point Humidity Pressure Visibility Wind Dir Wind Speed Gust Speed Precip Events Conditions
12:02 AM 66.2 °F 64.4 °F 94% 29.92 in 5.0 mi ESE 4.6 mph - N/A   Overcast
12:53 AM 64.9 °F 63.0 °F 93% 29.93 in 5.0 mi NE 6.9 mph - N/A   Mostly Cloudy
1:21 AM 66.2 °F 64.4 °F 94% 29.94 in 4.0 mi ENE 10.4 mph 19.6 mph N/A   Overcast
1:53 AM 64.0 °F 60.1 °F 87% 29.93 in 10.0 mi ENE 11.5 mph - N/A   Overcast
2:53 AM 64.0 °F 59.0 °F 84% 29.93 in 10.0 mi East 6.9 mph - N/A   Overcast
3:53 AM 64.9 °F 59.0 °F 81% 29.92 in 10.0 mi ESE 9.2 mph - N/A   Overcast
4:17 AM 64.4 °F 59.0 °F 83% 29.91 in 10.0 mi SE 11.5 mph - N/A   Overcast
4:33 AM 64.4 °F 60.8 °F 88% 29.90 in 2.5 mi East 11.5 mph - 0.11 in Rain , Thunderstorm Rain
4:41 AM 62.6 °F 60.8 °F 94% 29.90 in 8.0 mi ESE 9.2 mph - 0.13 in Rain , Thunderstorm Light Thunderstorms and Rain
4:53 AM 63.0 °F 60.1 °F 90% 29.92 in 10.0 mi ENE 6.9 mph - 0.14 in Rain , Thunderstorm Light Thunderstorms and Rain
5:28 AM 64.4 °F 60.8 °F 88% 29.94 in 10.0 mi NE 12.7 mph - 0.00 in   Overcast
5:40 AM 62.6 °F 60.8 °F 94% 29.94 in 10.0 mi ENE 10.4 mph - 0.00 in Rain Light Rain
5:53 AM 63.0 °F 60.1 °F 90% 29.94 in 6.0 mi ENE 5.8 mph - 0.07 in Rain Light Rain
6:23 AM 62.6 °F 60.8 °F 94% 29.94 in 10.0 mi East 6.9 mph - 0.00 in   Overcast
6:53 AM 63.0 °F 59.0 °F 87% 29.95 in 10.0 mi ENE 5.8 mph - 0.00 in   Overcast
7:53 AM 63.0 °F 59.0 °F 87% 29.97 in 10.0 mi East 5.8 mph - N/A   Mostly Cloudy
8:53 AM 63.0 °F 60.1 °F 90% 30.00 in 10.0 mi NE 8.1 mph - N/A   Overcast
9:53 AM 64.0 °F 60.1 °F 87% 30.01 in 10.0 mi ESE 5.8 mph - N/A   Overcast
10:53 AM 64.9 °F 60.1 °F 84% 30.03 in 10.0 mi ENE 8.1 mph - N/A   Overcast
11:53 AM 68.0 °F 60.1 °F 76% 30.04 in 10.0 mi ENE 6.9 mph - N/A   Overcast
12:53 PM 72.0 °F 59.0 °F 64% 30.02 in 10.0 mi Variable 5.8 mph - N/A   Clear
1:53 PM 72.0 °F 59.0 °F 64% 30.01 in 10.0 mi SE 11.5 mph - N/A   Mostly Cloudy
2:53 PM 73.0 °F 59.0 °F 61% 29.99 in 10.0 mi SE 10.4 mph - N/A   Clear
3:53 PM 73.0 °F 57.9 °F 59% 29.97 in 10.0 mi SSE 10.4 mph - N/A   Clear
4:53 PM 72.0 °F 59.0 °F 64% 29.96 in 10.0 mi SSE 10.4 mph - N/A   Clear
5:53 PM 70.0 °F 59.0 °F 68% 29.95 in 10.0 mi SE 8.1 mph - N/A   Clear
6:53 PM 70.0 °F 60.1 °F 71% 29.95 in 10.0 mi SE 4.6 mph - N/A   Clear
7:53 PM 66.0 °F 61.0 °F 84% 29.95 in 10.0 mi SE 4.6 mph - N/A   Clear
8:53 PM 64.9 °F 61.0 °F 87% 29.96 in 10.0 mi ESE 3.5 mph - N/A   Clear
9:53 PM 64.9 °F 61.0 °F 87% 29.99 in 10.0 mi Calm Calm - N/A   Overcast
10:53 PM 64.0 °F 61.0 °F 90% 29.99 in 10.0 mi ENE 3.5 mph - N/A   Partly Cloudy
11:53 PM 63.0 °F 60.1 °F 90% 29.99 in 10.0 mi ENE 3.5 mph - N/A   Scattered Clouds